Location: M�nchen
(48.1404°N, 11.6043°E)
Time: 02:42:43
(UTC+01:00)

Envisat - Visible Passes

Search period start: 21 February 2018 00:00
Search period end: 03 March 2018 00:00
Orbit: 764 x 766 km, 98.2° (Epoch: 19 February)

Date Brightness Start Highest point End Pass type
(mag) Time Alt. Az. Time Alt. Az. Time Alt. Az.
21 Feb 4.2 18:17:39 10° ESE 18:21:29 22° ENE 18:25:20 10° N visible
21 Feb 3.5 19:55:05 10° S 20:00:06 60° W 20:05:09 10° NNW visible
22 Feb 2.9 19:18:20 10° SSE 19:23:22 68° ENE 19:28:26 10° N visible
22 Feb 5.5 20:59:28 10° SW 21:02:53 18° W 21:06:19 10° NW visible
23 Feb 3.6 18:42:17 10° SE 18:46:49 34° ENE 18:51:23 10° N visible
23 Feb 4.4 20:21:09 10° SSW 20:25:48 36° W 20:30:30 10° NNW visible
24 Feb 3.1 19:43:52 10° S 19:48:56 75° WSW 19:54:03 10° NNW visible
24 Feb 6.0 21:28:03 10° W 21:28:51 10° W 21:29:39 10° WNW visible
25 Feb 3.1 19:07:19 10° SSE 19:12:16 55° ENE 19:17:14 10° N visible
25 Feb 5.2 20:47:42 10° SW 20:51:38 22° W 20:55:34 10° NW visible
26 Feb 3.9 18:31:29 10° ESE 18:35:47 28° ENE 18:40:05 10° N visible
26 Feb 4.0 20:09:46 10° S 20:14:36 44° W 20:19:29 10° NNW visible
27 Feb 2.9 19:32:42 10° SSE 19:37:48 89° ENE 19:42:55 10° NNW visible
27 Feb 5.8 21:15:10 10° WSW 21:17:32 13° W 21:19:56 10° WNW visible
28 Feb 3.3 18:56:22 10° SE 19:01:10 45° ENE 19:06:00 10° N visible
28 Feb 4.9 20:36:06 10° SSW 20:40:23 27° W 20:44:41 10° NW visible
01 Mar 4.1 18:20:46 10° ESE 18:24:45 24° ENE 18:28:44 10° N visible
01 Mar 3.6 19:58:27 10° S 20:03:25 55° W 20:08:27 10° NNW visible
02 Mar 2.9 19:21:37 10° SSE 19:26:40 74° ENE 19:31:45 10° N visible
02 Mar 5.6 21:03:05 10° SW 21:06:15 17° W 21:09:27 10° NW visible
